"Pseudo-MPEC" for X67587

Created 2020 Mar 31 10:07:13 UT using Find_Orb

Click here for an explanation of pseudo-MPECs

 
 Astrometry: 
     X67587   C2020 03 17uV7/ii^uTO7w`=45^Au))43l/PVPSpm/a#R*;(9j?AstrometryjD29
     X67587   C2020 03 17*7%@uFo$**lvmBRC;+m.redacted;o.e!9click')here,K#v0:!D29
     X67587   C2020 03 17*iyG,]9(Pfor6explanationZNQ?A_4*%6w`s)ev%uj[%Y]%[CbtD29

Station data:
(D29) Purple Mountain Observatory, XuYi Station  (N32.734366 E118.463900)
   China.  Observers H. B. Zhao, B. Li, G. Zhaori, R. Q. Hong, L. F. Hu.
   Measurers H. B. Zhao, B. Li. H. Lu, G. Zhaori. 1.04-m f/1.8 Schmidt + CCD.

Orbital elements:  X67587
   Perihelion 2020 Aug 6.346599 +/- 289 TT =  8:19:06 (JD 2459067.846599)
Epoch 2020 Mar 18.0 TT = JDT 2458926.5   Earth MOID: 0.2145   Ma: 0.0351
M 287.41518356 +/- 90               (J2000 ecliptic)          AutoNEOCP
n   0.51352361 +/- 0.356            Peri.  249.00003 +/- 70
a   1.54440939 +/- 0.714            Node    12.83061 +/- 60
e   0.2181357 +/- 0.233             Incl.    5.34708 +/- 39
P   1.92/701.03d           H 20.5   G  0.15   U 12.1  SR
q 1.20751842 +/- 1.07    Q 1.88130036 +/- 30.8
From 3 observations 2020 Mar. 17 (40.7 min); mean residual 0".17
Residuals in arcseconds: 
200317 D29  .17+  .04+    200317 D29  .33-  .08-    200317 D29  .16+  .04+    

Ephemerides (geocentric):
Date (UTC) HH   RA              Dec         delta   r     elong  mag " sig PA
---- -- -- --  -------------   -----------  ------ ------ -----  --- ---- ---
2020 03 31 10  09 32 50.568   +19 24 07.58  .62919 1.4739 128.2 21.7 4498   1
2020 03 31 11  09 32 49.542   +19 23 49.59  .62932 1.4738 128.2 21.7 4514   1
2020 03 31 12  09 32 48.522   +19 23 31.57  .62945 1.4736 128.2 21.7 4531   1
2020 03 31 13  09 32 47.508   +19 23 13.52  .62958 1.4735 128.1 21.7 4547   1
2020 03 31 14  09 32 46.501   +19 22 55.44  .62971 1.4734 128.1 21.7 4563   1
2020 03 31 15  09 32 45.501   +19 22 37.34  .62984 1.4732 128.0 21.7 4579   1
2020 03 31 16  09 32 44.507   +19 22 19.20  .62997 1.4731 128.0 21.7 4596   1
2020 03 31 17  09 32 43.520   +19 22 01.04  .63010 1.4730 127.9 21.7 4612   1
2020 03 31 18  09 32 42.539   +19 21 42.86  .63023 1.4729 127.9 21.7 4628   1
2020 03 31 19  09 32 41.564   +19 21 24.64  .63036 1.4727 127.9 21.7 4645   1
2020 03 31 20  09 32 40.596   +19 21 06.40  .63049 1.4726 127.8 21.7 4661   1
2020 03 31 21  09 32 39.635   +19 20 48.13  .63063 1.4725 127.8 21.7 4677   1
2020 03 31 22  09 32 38.680   +19 20 29.83  .63076 1.4723 127.7 21.7 4694   1
2020 03 31 23  09 32 37.731   +19 20 11.51  .63089 1.4722 127.7 21.7 4710   1
2020 04 01 00  09 32 36.789   +19 19 53.16  .63102 1.4721 127.6 21.7 4727   1
2020 04 01 01  09 32 35.854   +19 19 34.78  .63115 1.4720 127.6 21.7 4743   1
2020 04 01 02  09 32 34.925   +19 19 16.38  .63128 1.4718 127.6 21.7 4759   1
2020 04 01 03  09 32 34.002   +19 18 57.94  .63142 1.4717 127.5 21.7 4776   1
2020 04 01 04  09 32 33.086   +19 18 39.48  .63155 1.4716 127.5 21.7 4792   1
2020 04 01 05  09 32 32.176   +19 18 21.00  .63168 1.4714 127.4 21.7 4809   2
2020 04 01 06  09 32 31.273   +19 18 02.48  .63181 1.4713 127.4 21.7 4825   2
2020 04 01 07  09 32 30.377   +19 17 43.94  .63195 1.4712 127.4 21.7 4842   2
2020 04 01 08  09 32 29.486   +19 17 25.37  .63208 1.4711 127.3 21.7 4858   2
2020 04 01 09  09 32 28.603   +19 17 06.78  .63221 1.4709 127.3 21.7 4875   2
2020 04 01 10  09 32 27.725   +19 16 48.16  .63234 1.4708 127.2 21.7 4891   2
2020 04 01 11  09 32 26.855   +19 16 29.51  .63248 1.4707 127.2 21.7 4908   2
2020 04 01 12  09 32 25.990   +19 16 10.83  .63261 1.4705 127.1 21.7 4925   2
2020 04 01 13  09 32 25.132   +19 15 52.13  .63274 1.4704 127.1 21.7 4941   2
2020 04 01 14  09 32 24.281   +19 15 33.40  .63288 1.4703 127.1 21.7 4958   2
2020 04 01 15  09 32 23.436   +19 15 14.65  .63301 1.4702 127.0 21.7 4974   2
2020 04 01 16  09 32 22.598   +19 14 55.86  .63314 1.4700 127.0 21.7 4991   2
2020 04 01 17  09 32 21.766   +19 14 37.05  .63328 1.4699 126.9 21.7 5008   2
2020 04 01 18  09 32 20.940   +19 14 18.22  .63341 1.4698 126.9 21.7 5024   2
2020 04 01 19  09 32 20.121   +19 13 59.35  .63355 1.4696 126.8 21.7 5041   2
2020 04 01 20  09 32 19.308   +19 13 40.46  .63368 1.4695 126.8 21.7 5058   2
2020 04 01 21  09 32 18.502   +19 13 21.55  .63381 1.4694 126.8 21.7 5074   2
2020 04 01 22  09 32 17.702   +19 13 02.61  .63395 1.4693 126.7 21.7 5091   2
2020 04 01 23  09 32 16.909   +19 12 43.64  .63408 1.4691 126.7 21.7 5108   2
2020 04 02 00  09 32 16.122   +19 12 24.64  .63422 1.4690 126.6 21.7 5124   2
2020 04 02 01  09 32 15.341   +19 12 05.62  .63435 1.4689 126.6 21.7 5141   2
2020 04 02 02  09 32 14.567   +19 11 46.57  .63449 1.4687 126.6 21.7 5158   2
2020 04 02 03  09 32 13.800   +19 11 27.50  .63462 1.4686 126.5 21.7 5175   2
2020 04 02 04  09 32 13.039   +19 11 08.39  .63476 1.4685 126.5 21.7 5192   2
2020 04 02 05  09 32 12.284   +19 10 49.27  .63489 1.4684 126.4 21.7 5208   2
2020 04 02 06  09 32 11.536   +19 10 30.11  .63503 1.4682 126.4 21.7 5225   2
2020 04 02 07  09 32 10.794   +19 10 10.93  .63516 1.4681 126.3 21.7 5242   2
2020 04 02 08  09 32 10.058   +19 09 51.73  .63530 1.4680 126.3 21.7 5259   2
2020 04 02 09  09 32 09.329   +19 09 32.49  .63543 1.4678 126.3 21.7 5276   2